When you browse on this site, cookies collect data to enhance your experience and personalize the content and advertising you see.
Visit our Privacy Policy to learn more. By continuing to use the site, you agree to this use of cookies and data.
  • In Latvia
  • List of Countries
  • For 7 days
  • Water Temperature
  • Satellite Maps
  • Weather Map
  • Weather Widgets
  • user-avatar
    Login

    Hourly Weather Daugavpils

    Today, 20 July, Saturday

    Time Temperature Precipitation Wind Pressure Humidity
    00:00 +13°C° 0 mm 2 mps 749 mmHg 87%
    01:00 +12°C° 0 mm 2 mps 749 mmHg 89%
    02:00 +12°C° 0 mm 2 mps 750 mmHg 91%
    03:00 +12°C° 0 mm 2 mps 750 mmHg 91%
    04:00 +12°C° 0 mm 2 mps 750 mmHg 92%
    05:00 +10°C° 0 mm 2 mps 750 mmHg 92%
    06:00 +14°C° 0 mm 2 mps 750 mmHg 83%
    07:00 +16°C° 0 mm 2 mps 750 mmHg 75%
    08:00 +18°C° 0 mm 2 mps 751 mmHg 66%
    09:00 +20°C° 0 mm 2 mps 751 mmHg 59%
    10:00 +21°C° 0 mm 2 mps 751 mmHg 52%
    11:00 +24°C° 0 mm 2 mps 751 mmHg 45%
    12:00 +25°C° 0 mm 2 mps 751 mmHg 43%
    13:00 +25°C° 0 mm 2 mps 751 mmHg 41%
    14:00 +26°C° 0 mm 2 mps 751 mmHg 39%
    15:00 +25°C° 0 mm 2 mps 751 mmHg 41%
    16:00 +25°C° 0 mm 2 mps 751 mmHg 43%
    17:00 +25°C° 0 mm 2 mps 751 mmHg 46%
    18:00 +23°C° 0 mm 2 mps 751 mmHg 55%
    19:00 +20°C° 0 mm 2 mps 751 mmHg 64%
    20:00 +19°C° 0 mm 1 mps 751 mmHg 74%
    21:00 +18°C° 0 mm 1 mps 752 mmHg 77%
    22:00 +16°C° 0 mm 1 mps 752 mmHg 80%
    23:00 +15°C° 0 mm 1 mps 752 mmHg 84%

    Tomorrow, 21 July, Sunday

    Time Temperature Precipitation Wind Pressure Humidity
    00:00 +14°C° 0 mm 1 mps 752 mmHg 86%
    01:00 +13°C° 0 mm 0 mps 752 mmHg 88%
    02:00 +12°C° 0 mm 0 mps 752 mmHg 90%
    03:00 +12°C° 0 mm 0 mps 752 mmHg 89%
    04:00 +12°C° 0 mm 0 mps 752 mmHg 89%
    05:00 +12°C° 0 mm 0 mps 752 mmHg 88%
    06:00 +15°C° 0 mm 0 mps 753 mmHg 80%
    07:00 +17°C° 0 mm 0 mps 753 mmHg 72%
    08:00 +20°C° 0 mm 0 mps 753 mmHg 64%
    09:00 +24°C° 0 mm 1 mps 753 mmHg 58%
    10:00 +25°C° 0 mm 1 mps 752 mmHg 52%
    11:00 +27°C° 0 mm 1 mps 752 mmHg 45%
    12:00 +27°C° 0 mm 1 mps 752 mmHg 43%
    13:00 +27°C° 0 mm 1 mps 752 mmHg 41%
    14:00 +28°C° 0 mm 1 mps 752 mmHg 39%
    15:00 +27°C° 0 mm 2 mps 751 mmHg 42%
    16:00 +27°C° 0 mm 2 mps 751 mmHg 46%
    17:00 +27°C° 0 mm 2 mps 751 mmHg 49%
    18:00 +25°C° 0.1 mm 2 mps 751 mmHg 61%
    19:00 +23°C° 0.1 mm 1 mps 751 mmHg 72%
    20:00 +21°C° 0.1 mm 1 mps 750 mmHg 84%
    21:00 +20°C° 0 mm 1 mps 750 mmHg 85%
    22:00 +20°C° 0 mm 1 mps 750 mmHg 87%
    23:00 +19°C° 0 mm 1 mps 750 mmHg 88%

    Day after tomorrow, 22 July, Monday

    Time Temperature Precipitation Wind Pressure Humidity
    00:00 +19°C° 0.5 mm 1 mps 750 mmHg 89%
    01:00 +18°C° 0.5 mm 1 mps 750 mmHg 90%
    02:00 +18°C° 0.5 mm 1 mps 750 mmHg 90%
    03:00 +18°C° 0.5 mm 1 mps 750 mmHg 93%
    04:00 +18°C° 0.5 mm 1 mps 749 mmHg 95%
    05:00 +18°C° 0.5 mm 1 mps 749 mmHg 97%
    06:00 +18°C° 0.6 mm 1 mps 749 mmHg 97%
    07:00 +17°C° 0.6 mm 2 mps 749 mmHg 97%
    08:00 +17°C° 0.6 mm 2 mps 749 mmHg 97%
    09:00 +18°C° 0.7 mm 2 mps 749 mmHg 95%
    10:00 +19°C° 0.7 mm 2 mps 749 mmHg 94%
    11:00 +19°C° 0.7 mm 2 mps 749 mmHg 92%
    12:00 +19°C° 0.9 mm 2 mps 749 mmHg 93%
    13:00 +19°C° 0.9 mm 2 mps 749 mmHg 93%
    14:00 +19°C° 0.9 mm 2 mps 749 mmHg 93%
    15:00 +20°C° 0.6 mm 1 mps 749 mmHg 94%
    16:00 +20°C° 0.6 mm 1 mps 749 mmHg 94%
    17:00 +17°C° 0.6 mm 0 mps 749 mmHg 95%
    18:00 +19°C° 0.4 mm 1 mps 749 mmHg 96%
    19:00 +18°C° 0.4 mm 1 mps 749 mmHg 97%
    20:00 +17°C° 0.4 mm 2 mps 749 mmHg 98%
    21:00 +17°C° 0.3 mm 2 mps 749 mmHg 98%
    22:00 +17°C° 0.3 mm 2 mps 749 mmHg 98%
    23:00 +17°C° 0.3 mm 2 mps 749 mmHg 98%

    23 July, Tuesday

    Time Temperature Precipitation Wind Pressure Humidity
    00:00 +16°C° 0.1 mm 2 mps 749 mmHg 98%
    01:00 +16°C° 0.1 mm 1 mps 749 mmHg 98%
    02:00 +15°C° 0.1 mm 1 mps 749 mmHg 97%
    03:00 +15°C° 0 mm 2 mps 749 mmHg 98%
    04:00 +15°C° 0 mm 2 mps 749 mmHg 98%
    05:00 +15°C° 0 mm 2 mps 749 mmHg 98%
    06:00 +16°C° 0 mm 2 mps 750 mmHg 94%
    07:00 +17°C° 0 mm 2 mps 750 mmHg 90%
    08:00 +19°C° 0 mm 2 mps 750 mmHg 86%
    09:00 +20°C° 0 mm 2 mps 750 mmHg 74%
    10:00 +22°C° 0 mm 3 mps 750 mmHg 62%
    11:00 +25°C° 0 mm 3 mps 750 mmHg 51%
    12:00 +26°C° 0 mm 3 mps 750 mmHg 49%
    13:00 +26°C° 0 mm 3 mps 750 mmHg 47%
    14:00 +26°C° 0 mm 3 mps 750 mmHg 46%
    15:00 +26°C° 0 mm 3 mps 750 mmHg 47%
    16:00 +26°C° 0 mm 3 mps 749 mmHg 49%
    17:00 +26°C° 0 mm 2 mps 749 mmHg 51%
    18:00 +24°C° 0 mm 2 mps 749 mmHg 59%
    19:00 +22°C° 0 mm 1 mps 749 mmHg 66%
    20:00 +20°C° 0 mm 1 mps 749 mmHg 74%
    21:00 +19°C° 0 mm 1 mps 750 mmHg 78%
    22:00 +18°C° 0 mm 1 mps 750 mmHg 81%
    23:00 +16°C° 0 mm 1 mps 750 mmHg 84%

    24 July, Wednesday

    Time Temperature Precipitation Wind Pressure Humidity
    00:00 +16°C° 0 mm 1 mps 750 mmHg 87%
    01:00 +15°C° 0 mm 1 mps 750 mmHg 90%
    02:00 +15°C° 0 mm 1 mps 750 mmHg 92%
    03:00 +15°C° 0 mm 1 mps 750 mmHg 93%
    04:00 +14°C° 0 mm 1 mps 750 mmHg 94%
    05:00 +14°C° 0 mm 1 mps 750 mmHg 95%
    06:00 +16°C° 0 mm 1 mps 750 mmHg 87%
    07:00 +19°C° 0 mm 1 mps 750 mmHg 79%
    08:00 +21°C° 0 mm 1 mps 750 mmHg 72%
    09:00 +21°C° 0.1 mm 2 mps 750 mmHg 69%
    10:00 +23°C° 0.1 mm 2 mps 750 mmHg 67%
    11:00 +24°C° 0.1 mm 2 mps 750 mmHg 65%
    12:00 +24°C° 0.3 mm 2 mps 750 mmHg 66%
    13:00 +24°C° 0.3 mm 2 mps 750 mmHg 67%
    14:00 +25°C° 0.3 mm 2 mps 750 mmHg 67%
    15:00 +24°C° 0.3 mm 2 mps 750 mmHg 70%
    16:00 +24°C° 0.3 mm 2 mps 750 mmHg 73%
    17:00 +24°C° 0.3 mm 3 mps 750 mmHg 76%
    18:00 +21°C° 0.1 mm 2 mps 750 mmHg 80%
    19:00 +20°C° 0.1 mm 2 mps 750 mmHg 84%
    20:00 +19°C° 0.1 mm 2 mps 750 mmHg 88%
    21:00 +18°C° 0 mm 2 mps 750 mmHg 90%
    22:00 +17°C° 0 mm 2 mps 750 mmHg 92%
    23:00 +16°C° 0 mm 2 mps 751 mmHg 95%

    25 July, Thursday

    Time Temperature Precipitation Wind Pressure Humidity
    00:00 +15°C° 0 mm 2 mps 751 mmHg 95%
    01:00 +15°C° 0 mm 2 mps 751 mmHg 96%
    02:00 +14°C° 0 mm 2 mps 751 mmHg 97%
    03:00 +14°C° 0 mm 2 mps 751 mmHg 96%
    04:00 +14°C° 0 mm 2 mps 751 mmHg 96%
    05:00 +14°C° 0 mm 2 mps 751 mmHg 95%
    06:00 +15°C° 0 mm 2 mps 751 mmHg 94%
    07:00 +16°C° 0 mm 2 mps 752 mmHg 92%
    08:00 +17°C° 0 mm 2 mps 752 mmHg 91%
    09:00 +19°C° 0 mm 2 mps 752 mmHg 82%
    10:00 +20°C° 0 mm 2 mps 752 mmHg 73%
    11:00 +22°C° 0 mm 3 mps 752 mmHg 64%
    12:00 +24°C° 0.1 mm 3 mps 752 mmHg 61%
    13:00 +24°C° 0.1 mm 3 mps 752 mmHg 57%
    14:00 +25°C° 0.1 mm 4 mps 751 mmHg 54%
    15:00 +25°C° 0 mm 4 mps 751 mmHg 52%
    16:00 +25°C° 0 mm 4 mps 751 mmHg 51%
    17:00 +23°C° 0 mm 4 mps 751 mmHg 49%
    18:00 +22°C° 0 mm 3 mps 752 mmHg 57%
    19:00 +20°C° 0 mm 3 mps 752 mmHg 65%
    20:00 +18°C° 0 mm 2 mps 752 mmHg 73%
    21:00 +17°C° 0 mm 2 mps 752 mmHg 77%
    22:00 +16°C° 0 mm 2 mps 753 mmHg 82%
    23:00 +15°C° 0 mm 2 mps 753 mmHg 87%
    Show more